Airfield :
LOGIN :

Register | Disclaimer

   EN    FR    IT 

 










Legend :    VFR   Marginal VFR   IFR   Intensive IFR   Very Intensive IFR
Visi :
Ceiling :
>= 8 km
>= 3000ft
5 to 8 km
1000 to 3000 ft
1500m to 5 km
500 to 1000 ft
800 to 1500m
200 to 500 ft
< 800m
< 200 ft
Symbols :   Thunderstorms  Fog  Heavy snow  Heavy precipitations  Wind > 20 kt
SIGMETs :     Misc.  Thunderstorms  Icing  Turbulence  Mountain Waves  Volcanic Ashes






- Airport Elevation : 2265 ft
- IATA code : CZL


DABC - Mohamed Boudiaf Int. Constantine

CURRENT METAR :
  • 221700Z 26016KT 9999 FEW033 15/04 Q1013

EXPIRED METARs :
  • 221600Z 26018KT 9999 FEW033 SCT200 16/04 Q1012
  • 221500Z 28009KT 9999 FEW033 SCT200 17/04 Q1012

TAF TAF DABC
Valid from the 22 at 18:00 until the 23 at 18:00 UTC


221700Z 2218/2318 26014KT 9999 FEW033 SCT100
PROB40
TEMPO 2218/2220 25015G25KT FEW026TCU FEW030CB
PROB30
TEMPO 2219/2303 5000 -TSRA FEW026CB
BECMG 2220/2222 32008KT
BECMG 2310/2312 26010KT



MET'MAP, your aeronautical weather chart ! - Copyright ORBIFLY December 2007 - Disclaimer

ORBIFLY MET'MAP TEAM :

Programming & Development : Alexandra Zaïnal
Concept & original design : Baudouin d'Aumeries
Assistance for programming : Marc-Olivier Méhu
Technical & hardware support : Manuel Goepfert

Contact : metmap@orbifly.com




SOURCES & CREDITS :

   NOAA